Stations météo

réclame
Mon MeteoGroup
Toulouse/Blagnac, France (7630): Température de l'air & dewpoint: 11.07.2018 13:00:00 - 17.07.2018 13:00:00 (CEST)Toulouse/Blagnac, France (7630): Température de l'air 5cm: 11.07.2018 13:00:00 - 17.07.2018 13:00:00 (CEST)Toulouse/Blagnac, France (7630): Température de l'air -20cm & Température de l'air -100cm: 11.07.2018 13:00:00 - 17.07.2018 13:00:00 (CEST)Toulouse/Blagnac, France (7630): Vitesse du vent & gusts: 11.07.2018 13:00:00 - 17.07.2018 13:00:00 (CEST)Toulouse/Blagnac, France (7630): Direction du vent: 11.07.2018 13:00:00 - 17.07.2018 13:00:00 (CEST)Toulouse/Blagnac, France (7630): reduced air pressure: 11.07.2018 13:00:00 - 17.07.2018 13:00:00 (CEST)Toulouse/Blagnac, France (7630): visibility: 11.07.2018 13:00:00 - 17.07.2018 13:00:00 (CEST)Toulouse/Blagnac, France (7630): Ensoleillement: 11.07.2018 13:00:00 - 17.07.2018 13:00:00 (CEST)Toulouse/Blagnac, France (7630): Quantités de précipitations: 11.07.2018 13:00:00 - 17.07.2018 13:00:00 (CEST)
Date & Time tt [°C] td [°C] tt 5cm [°C] tt -20cm [°C] tt -100cm [°C] ff [km/h] ff [knt] fx [km/h] fx [knt] dd ppp [hPa] vv [km] sd [min] rr [mm]
17.07.2018 13:00:00 23,8 15,0 25,8 22,5 21,0 7 4 18 10 NE 1020,3 29 32 0,0
17.07.2018 12:00:00 22,0 15,8 25,9 22,4 21,0 9 5 19 10 NNW 1020,8 23 10 0,0
17.07.2018 11:00:00 21,6 16,1 23,3 22,4 21,1 7 4 16 9 NW 1020,9 18 16 0,0
17.07.2018 10:00:00 20,7 16,3 21,0 22,4 21,0 7 4 15 8 NNW 1021,1 24 29 0,0
17.07.2018 09:00:00 18,8 16,2 18,9 22,4 21,0 6 4 14 8 NW 1021,2 20 1 0,0
17.07.2018 08:00:00 18,3 16,1 17,9 22,5 21,0 5 3 16 9 W 1021,1 22 15 0,0
17.07.2018 07:00:00 18,1 16,3 16,9 22,7 21,0 11 6 20 11 W 1021,0 18 7 0,0
17.07.2018 06:00:00 18,3 16,5 17,2 22,8 21,1 14 7 21 12 W 1020,8 17 0 0,0
17.07.2018 05:00:00 18,4 16,6 17,5 22,9 21,0 14 7 21 12 W 1020,8 16 0 0,0
17.07.2018 04:00:00 18,4 16,6 17,7 23,0 21,0 11 6 17 9 WSW 1020,9 19 0 0,0
17.07.2018 03:00:00 18,3 16,3 17,0 23,2 21,0 10 5 18 10 WSW 1021,3 21 0 0,0
17.07.2018 02:00:00 18,5 15,9 17,4 23,3 21,0 13 7 27 14 W 1021,2 23 0 0,0
17.07.2018 01:00:00 19,1 16,1 17,9 23,4 21,0 16 9 28 15 W 1021,0 25 0 0,0
17.07.2018 00:00:00 20,0 16,4 19,3 23,5 21,0 19 10 33 18 WNW 1020,5 27 0 0,0
16.07.2018 23:00:00 20,8 18,0 20,1 23,6 21,0 19 11 33 18 W 1019,7 23 0 0,0
16.07.2018 22:00:00 21,2 18,6 20,1 23,6 21,0 19 10 31 17 W 1019,0 21 0 0,0
16.07.2018 21:00:00 21,2 18,8 18,6 23,7 21,0 21 11 33 18 W 1018,3 23 34 2,7
16.07.2018 20:00:00 20,5 17,7 19,3 23,7 21,0 27 15 45 25 W 1017,9 0,8 1 1,2
16.07.2018 19:00:00 22,7 17,4 23,3 23,7 21,0 26 14 45 24 W 1016,9 30 17 0,0
16.07.2018 18:00:00 23,7 15,2 24,7 23,6 21,0 25 14 46 25 WNW 1016,6 29 0 0,0
16.07.2018 17:00:00 23,2 17,2 22,5 23,5 21,0 29 16 46 25 W 1015,9 29 13 0,0
16.07.2018 16:00:00 22,0 18,8 19,5 23,3 21,0 21 12 40 22 W 1015,6 23 14 2,6
16.07.2018 15:00:00 22,6 19,8 19,5 23,3 21,0 22 12 42 23 W 1015,6 18 12 0,2
16.07.2018 14:00:00 21,9 17,7 20,9 23,3 21,0 16 9 25 14 W 1015,8 25 6 0,0
16.07.2018 13:00:00 19,1 17,2 19,2 23,4 21,0 9 5 24 13 SW 1016,4 27 0 0,0
16.07.2018 12:00:00 18,4 17,1 17,4 23,6 21,0 13 7 28 15 SSW 1016,5 26 0 0,6
16.07.2018 11:00:00 17,8 16,8 16,8 23,9 21,0 16 9 26 14 W 1016,6 8 0 5,3
16.07.2018 10:00:00 17,7 16,0 16,8 24,1 21,0 5 3 26 14 E 1015,7 4,7 0 7,4
16.07.2018 09:00:00 18,4 17,2 17,6 24,3 21,0 14 8 22 12 NW 1015,3 3,2 0 4,3
16.07.2018 08:00:00 18,3 17,0 17,4 24,5 21,0 13 7 39 21 WNW 1013,6 6 0 2,2
16.07.2018 07:00:00 19,3 17,4 18,3 24,7 21,0 14 8 31 17 N 1012,7 3,5 0 0,2
16.07.2018 06:00:00 20,0 16,8 18,9 24,8 21,0 23 12 34 19 NNW 1012,6 18 0 0,0
16.07.2018 05:00:00 21,2 19,3 20,2 24,9 20,9 19 11 31 17 WNW 1012,7 12 0 0,0
16.07.2018 04:00:00 21,8 19,7 20,4 25,1 20,9 18 10 29 16 WSW 1013,2 12 0 0,2
16.07.2018 03:00:00 22,2 19,9 20,1 25,2 20,9 12 7 23 13 WSW 1013,8 12 0 0,0
16.07.2018 02:00:00 21,6 19,3 19,8 25,4 20,9 11 6 48 26 NW 1014,4 20 0 0,6
16.07.2018 01:00:00 22,8 18,3 20,0 25,6 20,9 19 11 29 16 SW 1014,8 19 0 0,2
16.07.2018 00:00:00 24,9 16,9 23,2 25,8 20,9 15 8 27 15 S 1013,7 43 0 0,0
15.07.2018 23:00:00 24,8 14,6 23,2 26,0 20,9 10 5 37 20 WNW 1013,3 41 0 0,0
15.07.2018 22:00:00 27,5 16,8 26,6 26,1 20,9 27 15 39 21 NW 1012,1 42 0 0,0
15.07.2018 21:00:00 29,9 16,3 28,8 26,2 21,0 17 9 26 14 NNW 1011,7 41 0 0,0
15.07.2018 20:00:00 30,8 14,8 29,9 26,1 20,9 15 8 24 13 N 1011,4 21 15 0,0
15.07.2018 19:00:00 31,9 15,0 33,6 26,0 20,9 10 5 26 14 W 1011,3 42 45 0,0
15.07.2018 18:00:00 32,4 14,1 36,9 25,7 20,9 7 4 18 10 S 1011,5 2,8 52 0,0
15.07.2018 17:00:00 32,4 15,0 38,0 25,4 20,9 5 3 16 8 N 1011,8 19 58 0,0
15.07.2018 16:00:00 31,5 14,6 39,5 25,0 20,9 10 6 19 10 N 1012,2 20 60 0,0
15.07.2018 15:00:00 30,6 14,7 38,8 24,7 20,9 10 5 22 12 NNE 1012,7 34 60 0,0
15.07.2018 14:00:00 29,9 15,2 37,4 24,3 20,9 8 4 21 11 NE 1013,5 33 60 0,0
15.07.2018 13:00:00 28,9 15,8 37,6 24,0 20,9 6 4 19 10 NE 1014,3 36 60 0,0
15.07.2018 12:00:00 27,9 15,5 36,1 23,7 20,9 3 2 15 8 NE 1014,6 17 60 0,0
15.07.2018 11:00:00 25,6 16,2 33,3 23,6 20,9 5 3 16 9 SE 1015,0 39 60 0,0
15.07.2018 10:00:00 23,5 16,0 27,8 23,6 20,9 9 5 18 10 ESE 1015,4 40 60 0,0
15.07.2018 09:00:00 21,4 16,6 21,9 23,7 20,9 10 6 19 11 ESE 1015,9 20 56 0,0
15.07.2018 08:00:00 20,0 17,2 17,3 23,9 20,9 7 4 10 5 ENE 1015,3 13 28 0,0
15.07.2018 07:00:00 18,9 17,0 15,6 24,1 20,9 5 3 10 6 ENE 1015,2 19 0 0,0
15.07.2018 06:00:00 18,6 15,8 15,9 24,3 20,9 3 1 10 5 W 1015,4 29 0 0,0
15.07.2018 05:00:00 18,4 16,6 17,3 24,5 20,8 3 2 22 12 SSE 1015,6 49 0 0,0
15.07.2018 04:00:00 19,3 16,3 17,7 24,8 20,9 11 6 31 17 SSW 1015,8 43 0 0,0
15.07.2018 03:00:00 19,3 16,5 17,1 25,1 20,9 23 12 55 30 ESE 1014,2 46 0 5,1
15.07.2018 02:00:00 19,6 15,9 17,3 25,3 20,8 35 19 66 36 W 1017,7 0,6 0 10,4
15.07.2018 01:00:00 26,4 16,3 23,7 25,5 20,8 3 2 12 6 NW 1014,7 28 0 0,0
15.07.2018 00:00:00 27,4 16,1 22,1 25,7 20,8 6 3 12 6 WNW 1014,4 36 0 0,0
14.07.2018 23:00:00 28,6 15,2 24,3 25,8 20,8 8 4 14 8 NNW 1014,1 34 0 0,0
14.07.2018 22:00:00 29,5 16,0 24,4 25,9 20,8 8 4 12 7 N 1013,8 36 0 0,0
14.07.2018 21:00:00 30,4 14,9 26,4 25,9 20,8 5 3 11 6 NE 1013,5 19 10 0,0
14.07.2018 20:00:00 31,1 15,1 32,1 25,9 20,8 4 2 16 9 E 1013,5 40 37 0,0
14.07.2018 19:00:00 32,6 15,6 36,0 25,7 20,8 5 3 16 9 W 1013,5 28 60 0,0
14.07.2018 18:00:00 31,9 15,4 38,4 25,5 20,8 7 4 22 12 E 1013,8 28 60 0,0
14.07.2018 17:00:00 31,6 16,0 39,1 25,2 20,8 8 4 29 16 NNE 1014,3 32 60 0,0
14.07.2018 16:00:00 31,3 15,7 38,9 24,9 20,8 6 3 25 14 NNE 1014,7 17 60 0,0
14.07.2018 15:00:00 30,9 16,1 38,8 24,5 20,8 8 4 23 12 NNE 1015,2 19 60 0,0
14.07.2018 14:00:00 29,5 17,7 37,4 24,2 20,8 11 6 30 16 NNE 1015,8 18 60 0,0
14.07.2018 13:00:00 27,6 17,7 32,8 23,9 20,8 8 4 21 12 NE 1016,3 23 58 0,0
14.07.2018 12:00:00 25,2 18,2 30,0 23,8 20,8 7 4 16 9 NNE 1016,6 20 35 0,0
14.07.2018 11:00:00 23,1 18,2 24,6 23,8 20,8 8 4 15 8 ENE 1017,1 20 12 0,0
14.07.2018 10:00:00 21,9 17,9 23,5 23,8 20,8 5 3 10 6 NNE 1017,3 9 8 0,0
14.07.2018 09:00:00 21,3 18,5 20,9 23,8 20,8 6 4 16 8 S 1017,5 17 29 0,0
14.07.2018 08:00:00 20,4 18,2 19,0 24,0 20,8 10 6 16 9 SE 1016,8 15 0 0,0
14.07.2018 07:00:00 19,9 17,5 18,3 24,1 20,8 8 5 15 8 ENE 1017,1 20 0 0,0
14.07.2018 06:00:00 19,9 18,0 17,6 24,3 20,8 13 7 17 9 NW 1018,1 17 0 0,2
14.07.2018 05:00:00 19,7 17,8 17,6 24,4 20,8 7 4 16 9 WNW 1017,4 14 0 0,0
14.07.2018 04:00:00 19,1 17,6 17,7 24,7 20,8 8 4 18 10 SSW 1017,4 16 0 0,0
14.07.2018 03:00:00 20,5 17,7 19,1 24,9 20,8 9 5 30 16 W 1018,2 21 0 0,0
14.07.2018 02:00:00 20,2 18,3 19,1 25,1 20,8 18 10 35 19 S 1018,4 19 0 0,6
14.07.2018 01:00:00 20,4 18,7 19,2 25,2 20,8 19 10 45 24 E 1017,9 6 0 2,6
14.07.2018 00:00:00 24,2 17,4 19,9 25,3 20,8 17 9 38 20 NW 1017,3 15 0 0,4
13.07.2018 23:00:00 26,0 14,8 24,5 25,5 20,7 14 8 24 13 N 1016,9 13 0 0,0
13.07.2018 22:00:00 26,4 14,8 24,6 25,6 20,8 11 6 19 10 N 1016,3 6 0 0,0
13.07.2018 21:00:00 27,4 14,8 26,2 25,7 20,8 13 7 24 13 N 1015,7 17 0 0,0
13.07.2018 20:00:00 28,4 14,2 27,8 25,7 20,8 14 8 29 16 N 1015,8 19 0 0,0
13.07.2018 19:00:00 29,4 14,8 31,1 25,6 20,7 17 9 34 18 N 1015,5 16 47 0,0
13.07.2018 18:00:00 30,3 15,2 36,1 25,3 20,8 15 8 30 16 N 1016,2 15 60 0,0
13.07.2018 17:00:00 30,5 15,0 37,7 25,0 20,8 13 7 26 14 NE 1016,2 20 60 0,0
13.07.2018 16:00:00 30,8 15,6 38,3 24,7 20,7 11 6 27 14 N 1016,5 17 60 0,0
13.07.2018 15:00:00 30,2 15,1 37,9 24,3 20,8 6 3 20 11 N 1016,9 19 60 0,0
13.07.2018 14:00:00 29,1 15,6 36,2 23,9 20,7 10 5 23 13 SE 1017,5 25 60 0,0
13.07.2018 13:00:00 27,8 14,1 31,4 23,6 20,7 9 5 23 12 N 1018,1 18 54 0,0
13.07.2018 12:00:00 27,0 14,1 32,0 23,4 20,8 9 5 19 11 NW 1018,9 25 51 0,0
13.07.2018 11:00:00 26,2 13,3 33,3 23,2 20,7 4 2 10 5 SW 1018,4 20 60 0,0
13.07.2018 10:00:00 24,4 14,5 25,5 23,2 20,7 2 1 8 5 NW 1018,4 22 45 0,0
13.07.2018 09:00:00 21,7 14,6 21,5 23,3 20,7 5 3 10 5 WSW 1018,4 26 23 0,0
13.07.2018 08:00:00 19,2 14,9 15,7 23,4 20,7 5 3 12 7 SSW 1018,2 24 33 0,0
13.07.2018 07:00:00 17,7 14,2 14,2 23,6 20,7 4 2 11 6 S 1018,0 24 9 0,0
13.07.2018 06:00:00 17,7 14,2 13,9 23,8 20,7 8 5 10 6 S 1018,1 20 0 0,0
13.07.2018 05:00:00 18,1 14,2 13,7 24,0 20,7 4 2 11 6 SSE 1017,8 26 0 0,0
13.07.2018 04:00:00 18,5 13,4 14,6 24,2 20,7 8 4 10 5 S 1017,8 26 0 0,0
13.07.2018 03:00:00 19,8 13,3 14,6 24,4 20,7 4 2 7 4 SSW 1017,7 26 0 0,0
13.07.2018 02:00:00 21,2 12,1 17,2 24,6 20,7 6 3 9 5 NW 1017,5 29 0 0,0
13.07.2018 01:00:00 22,2 12,4 18,8 24,7 20,7 9 5 14 8 NW 1017,8 31 0 0,0
13.07.2018 00:00:00 22,7 12,6 19,7 24,9 20,7 8 5 16 8 NW 1017,4 31 0 0,0
12.07.2018 23:00:00 23,8 12,7 21,0 25,1 20,7 8 4 20 11 WNW 1017,4 32 0 0,0
12.07.2018 22:00:00 25,5 12,3 23,4 25,2 20,7 14 7 22 12 NW 1016,6 20 11 0,0
12.07.2018 21:00:00 27,0 12,6 26,4 25,2 20,7 13 7 24 13 NW 1015,9 20 56 0,0
12.07.2018 20:00:00 28,5 13,2 30,6 25,2 20,7 13 7 25 13 W 1015,7 38 60 0,0
12.07.2018 19:00:00 28,6 13,3 32,3 25,2 20,7 13 7 27 14 W 1015,5 28 60 0,0
12.07.2018 18:00:00 29,2 14,2 28,2 25,1 20,7 17 9 31 17 WNW 1015,3 29 10 0,0
12.07.2018 17:00:00 27,9 13,0 29,2 24,9 20,7 22 12 40 21 NW 1015,4 24 13 0,0
12.07.2018 16:00:00 28,6 14,1 32,0 24,6 20,7 13 7 34 18 W 1015,3 19 21 0,0
12.07.2018 15:00:00 28,3 13,8 32,7 24,2 20,7 13 7 31 17 WNW 1015,5 20 36 0,0
12.07.2018 14:00:00 28,4 13,5 34,7 23,9 20,7 13 7 30 16 W 1015,8 18 55 0,0
12.07.2018 13:00:00 27,2 13,2 30,8 23,6 20,7 15 8 29 16 WNW 1016,0 18 55 0,0
12.07.2018 12:00:00 26,7 11,6 28,8 23,4 20,7 14 8 25 13 NW 1015,9 20 45 0,0
12.07.2018 11:00:00 25,0 12,6 27,8 23,3 20,7 6 3 17 9 W 1015,7 19 41 0,0
12.07.2018 10:00:00 22,5 13,0 24,3 23,3 20,7 4 2 14 8 NW 1015,8 34 18 0,0
12.07.2018 09:00:00 20,5 12,5 21,3 23,4 20,7 9 5 16 9 W 1015,7 26 23 0,0
12.07.2018 08:00:00 20,0 11,5 17,0 23,6 20,7 8 4 12 6 NW 1015,4 17 55 0,0
12.07.2018 07:00:00 19,1 11,1 15,0 23,7 20,7 4 2 9 5 WNW 1014,9 36 12 0,0
12.07.2018 06:00:00 18,9 11,0 16,5 23,9 20,7 6 3 11 6 WNW 1014,8 18 0 0,0
12.07.2018 05:00:00 18,9 10,7 16,3 24,1 20,6 8 4 14 7 WNW 1014,7 38 0 0,0
12.07.2018 04:00:00 19,4 10,9 17,6 24,3 20,6 11 6 14 7 NW 1014,3 37 0 0,0
12.07.2018 03:00:00 19,8 11,3 17,7 24,5 20,6 10 5 16 9 NW 1014,4 37 0 0,0
12.07.2018 02:00:00 21,3 11,6 18,7 24,7 20,6 11 6 14 8 NW 1014,5 35 0 0,0
12.07.2018 01:00:00 22,2 12,2 19,3 24,9 20,6 9 5 17 9 NW 1014,5 35 0 0,0
12.07.2018 00:00:00 24,0 12,0 22,1 25,0 20,6 10 5 20 11 N 1014,5 32 0 0,0
11.07.2018 23:00:00 25,2 11,7 23,8 25,2 20,6 13 7 22 12 NNW 1014,1 29 0 0,0
11.07.2018 22:00:00 25,7 11,5 24,0 25,3 20,6 12 6 26 14 NW 1014,4 6 11 0,0
11.07.2018 21:00:00 26,7 11,2 26,9 25,4 20,6 18 10 30 16 NNW 1014,1 27 60 0,0
11.07.2018 20:00:00 27,9 11,9 29,1 25,4 20,6 23 13 37 20 NW 1013,8 18 52 0,0
11.07.2018 19:00:00 28,2 12,1 29,1 25,3 20,6 24 13 44 24 NNW 1013,9 11 46 0,0
11.07.2018 18:00:00 28,9 12,3 32,6 25,1 20,6 24 13 40 22 NNW 1013,6 14 56 0,0
11.07.2018 17:00:00 29,3 12,7 35,4 24,8 20,6 22 12 37 20 NW 1013,9 11 60 0,0
11.07.2018 16:00:00 29,1 12,5 35,4 24,5 20,6 19 10 42 23 NNW 1014,1 15 60 0,0
11.07.2018 15:00:00 28,5 12,4 33,3 24,2 20,6 17 9 39 21 N 1014,7 13 55 0,0
11.07.2018 14:00:00 27,5 13,1 29,0 23,9 20,6 18 10 37 20 NW 1015,0 15 44 0,0
11.07.2018 13:00:00 26,7 11,6 31,0 23,6 20,6 17 9 37 20 NW 1015,6 4,0 55 0,0

tt = Température de l'air
td = dewpoint
tt 5cm = Température de l'air 5cm
tt -20cm = Température de l'air -20cm
tt -100cm = Température de l'air -100cm
ff = Vitesse du vent
fx = gusts
dd = Direction du vent
ppp = reduced air pressure
vv = visibility
sd = Ensoleillement
rr = Quantités de précipitations

stations d'obs. à proximité